CAPE
39 70 217 23 0 0 0 20 0 6 3 0 0 0 6 0 0 0 0 0 0 16 136 133 305 236 9 15 136 104 73 13 9 11 10 11 27 21 8 12 15 13 15 18 15 10 2 0 1
49 205 20 42 0 0 0 0 0 0 6 5 3 0 5 0 0 0 0 0 11 37 2 7 115 174 15 16 35 72 258 100 26 15 20 24 45 11 4 12 5 9 14 21 23 14 6 5 18
82 130 66 42 0 0 0 0 0 6 2 0 72 1 0 0 0 0 0 0 22 29 0 0 67 151 10 22 34 34 92 90 97 69 55 65 8 6 8 11 11 7 7 39 20 19 22 16 24
14 2 0 0 0 0 0 0 2 2 3 24 2 29 0 0 0 0 0 0 7 0 0 0 121 194 19 19 5 7 10 18 34 83 63 7 8 5 5 8 8 8 12 14 7 14 15 12 19
15 0 2 0 0 0 0 0 4 3 3 46 22 8 0 0 0 0 0 0 1 0 0 0 55 172 66 28 8 20 46 21 23 20 10 9 5 7 7 11 11 11 9 24 23 22 15 21 30
0 0 0 0 0 0 0 0 0 0 0 32 0 0 0 0 0 0 0 0 0 0 0 0 8 41 34 37 17 18 19 18 12 9 5 7 12 10 6 6 3 21 17 26 30 38 31 31 57
0 0 0 0 0 0 0 0 0 2 0 16 2 9 0 0 0 0 0 0 0 0 0 0 0 13 7 0 5 15 15 9 8 10 12 7 6 5 2 30 20 23 26 33 38 29 41 64 73
0 0 0 0 0 0 0 0 0 0 0 27 6 0 0 0 0 0 0 0 1 0 0 0 0 4 0 0 0 0 0 0 0 0 0 0 0 0 0 0 32 35 42 55 67 46 78 83 13
0 0 0 0 0 0 0 0 0 0 23 1 15 23 0 0 0 0 5 10 4 6 0 0 0 0 0 0 3 0 0 0 0 0 0 0 0 0 0 0 17 41 49 79 86 80 38 2 3
0 0 0 0 0 0 0 0 0 3 2 2 46 22 0 0 0 0 9 16 10 6 1 0 0 0 0 0 0 0 0 0 0 0 0 0 0 0 0 0 7 22 40 94 100 68 17 0 1
0 0 0 0 0 0 0 0 0 0 0 0 30 33 0 0 0 0 0 3 6 10 1 0 0 0 0 0 0 0 0 0 0 0 0 0 0 0 0 0 0 0 5 30 21 14 3 0 0
0 0 0 0 0 0 0 0 0 0 0 0 45 30 0 0 0 0 0 0 0 4 19 0 0 0 0 0 0 0 0 0 0 0 0 0 0 0 0 0 0 0 0 0 0 0 0 0 0
19 0 0 0 0 0 0 0 0 0 0 20 14 2 0 0 0 0 0 0 0 0 1 0 0 0 0 0 0 0 0 0 0 0 0 0 0 0 0 0 0 0 0 0 0 0 0 0 0
16 12 0 0 0 0 0 0 0 0 0 31 24 0 0 0 0 0 0 0 0 0 0 0 0 0 0 0 0 0 0 0 0 0 0 0 0 0 0 0 0 0 0 0 0 0 0 0 0
59 17 0 0 0 0 0 0 0 0 33 40 42 3 0 0 0 0 0 0 0 0 0 0 0 0 0 0 0 0 0 0 0 0 0 0 0 0 0 0 0 0 0 0 0 0 0 0 0
77 49 36 0 0 0 0 0 0 0 0 62 41 0 0 0 0 0 0 0 0 0 0 0 0 0 0 0 0 0 0 0 0 0 0 0 0 0 0 0 0 0 0 0 0 0 0 0 0
46 3 11 7 0 0 0 0 0 0 0 30 0 0 0 0 0 0 0 0 0 0 0 0 0 0 0 0 0 0 0 0 0 0 0 0 0 0 0 0 0 0 0 0 0 5 0 0 0
8 1 18 5 0 0 0 0 0 0 0 33 4 0 0 0 0 0 0 0 0 0 0 0 0 0 0 0 0 0 0 0 0 0 0 0 0 0 0 0 0 0 0 0 0 0 0 0 0
11 28 17 12 7 0 0 0 0 0 0 0 0 0 0 0 0 0 0 0 0 0 0 0 0 0 0 0 0 0 0 0 0 0 0 0 0 0 0 0 0 0 0 0 0 0 0 0 0
11 12 6 9 18 1 0 0 0 0 0 0 0 0 0 0 0 0 0 0 0 0 0 0 0 0 0 0 0 0 0 0 0 0 0 0 0 0 0 0 0 0 0 0 0 0 0 0 0
18 5 5 3 0 1 32 12 0 0 0 0 0 0 0 0 0 0 0 0 0 0 0 0 0 0 0 0 0 0 0 0 0 0 0 0 0 0 0 0 0 0 0 0 0 0 0 0 0
10 33 12 26 16 5 3 0 0 0 0 0 0 0 0 0 0 0 0 0 0 0 0 0 0 0 0 0 0 0 0 0 0 0 0 0 0 0 0 0 0 0 0 0 0 0 0 0 0
9 31 4 6 20 4 21 3 0 0 0 0 0 0 0 0 0 0 0 0 0 0 0 0 0 0 0 0 0 0 0 0 0 0 0 0 0 0 0 0 0 0 0 0 0 0 0 0 0
16 21 15 14 35 10 5 14 0 0 0 0 0 0 0 0 0 0 0 0 0 0 0 0 0 0 0 0 0 0 0 0 0 0 0 0 0 0 0 0 0 0 0 0 0 0 0 0 0
27 9 0 0 0 4 0 11 0 0 0 0 0 0 0 0 0 0 1 0 0 0 0 0 0 0 0 0 0 0 0 0 0 0 0 0 0 0 0 0 0 0 0 0 0 0 0 0 0
30 3 0 0 0 0 0 0 0 0 0 0 0 0 0 0 0 0 0 0 0 0 0 0 0 0 0 0 0 0 0 0 0 0 0 0 0 0 0 0 0 0 0 0 0 0 0 0 0
4 5 0 0 0 0 0 0 0 0 0 0 0 0 0 0 0 0 0 0 0 0 0 0 0 0 0 0 0 0 0 0 0 0 0 0 0 0 0 0 0 0 0 0 0 0 0 0 0
0 0 1 0 0 0 0 0 0 0 0 0 0 0 0 0 0 0 0 0 0 0 0 0 0 0 0 0 0 0 0 0 0 0 0 0 0 0 0 0 0 0 0 0 0 0 0 0 0
1 0 0 0 0 0 0 0 0 0 0 0 0 0 0 0 0 0 0 0 0 0 0 0 0 0 0 0 0 0 0 0 0 0 0 0 0 0 0 0 0 0 0 0 0 0 0 0 0
4 1 0 0 0 0 0 0 0 0 0 0 0 0 0 0 0 0 0 0 0 0 0 0 0 0 0 0 0 0 0 0 0 0 0 0 0 0 0 0 0 0 0 0 0 0 0 0 0
CIN
-352 -356 -270 -288 -8 0 0 -57 0 -24 -41 0 -3 0 -73 0 0 0 0 0 0 -117 -46 -33 -1 -4 -6 -58 -6 -31 -84 0 0 0 0 0 0 0 0 0 0 0 -1 -1 -1 0 0 0 0
-306 -214 -218 -207 0 0 0 0 0 0 -138 -280 -70 0 -109 0 0 0 0 0 -241 -72 -12 -44 -37 -6 -11 -80 -83 -65 -10 -116 0 0 0 0 -56 0 0 0 0 -1 -1 -1 -1 0 0 0 -3
-209 -187 -159 -98 0 0 0 0 0 -109 -97 0 -128 -21 0 0 0 0 0 0 -183 -108 0 0 -40 -7 -17 -137 -132 -170 -99 -121 -128 -134 -208 -179 0 0 0 0 0 -1 0 -1 0 0 0 0 -5
-184 -203 0 0 0 0 0 0 -112 -34 -158 -176 -20 -214 0 0 0 0 0 0 -194 -3 0 0 -20 -2 -132 -170 0 0 0 -7 -79 -162 -196 0 0 0 0 0 0 0 0 0 0 0 0 -1 -7
-157 0 -26 0 0 0 0 0 -75 -74 -112 -165 -142 -110 0 0 0 0 0 0 0 0 0 0 -51 -4 -65 -173 0 0 -203 0 0 0 0 0 0 0 0 0 0 0 0 0 0 -1 -2 -5 -10
0 0 0 0 0 0 0 0 0 0 0 -233 0 0 0 0 0 0 0 0 0 0 0 0 -15 -91 -150 -191 0 0 0 0 0 0 0 0 0 0 0 0 0 0 0 0 0 -1 -2 -11 -10
0 0 0 0 0 0 0 0 0 -91 0 -146 -80 -121 0 0 0 0 0 0 0 0 0 0 0 -4 -3 0 -2 -1 0 0 0 0 0 0 0 0 0 0 0 -1 -1 -3 -7 -8 -16 -12 -4
0 0 0 0 0 0 0 0 0 0 0 -273 -293 0 0 0 0 0 0 0 0 0 0 0 0 -12 0 0 -1 0 0 0 0 0 0 0 0 0 0 0 -5 -6 -8 -7 -9 -14 -6 -1 -28
0 0 0 0 0 0 0 0 0 0 -154 -36 -256 -375 0 0 0 0 -17 -10 -6 -5 0 0 0 0 0 0 -23 0 0 0 0 0 0 0 0 0 0 0 -26 -19 -15 -6 -5 -11 -22 0 0
0 0 0 0 0 0 0 0 0 -44 -116 -80 -290 -416 0 0 0 0 -8 -3 -7 -8 -3 0 0 0 0 0 0 0 0 0 0 0 0 0 0 0 0 0 -47 -43 -24 -5 -7 -12 -22 0 0
-2 0 0 0 0 0 0 0 0 0 0 0 -304 -375 0 0 0 0 -3 -23 -16 -29 -28 0 0 0 0 0 0 0 0 0 0 0 0 0 0 0 0 0 0 -15 -91 -46 -55 -75 -67 0 0
-1 0 0 0 0 0 0 0 0 0 0 0 -315 -347 0 0 0 0 0 0 0 -29 -25 0 0 0 0 0 0 0 0 0 0 0 0 0 0 0 0 0 0 0 0 0 0 0 0 0 0
-9 0 0 0 0 0 0 0 0 0 0 -262 -304 -189 0 0 0 0 0 0 0 0 -22 0 0 0 0 0 0 0 0 0 0 0 0 0 0 0 0 0 0 0 0 0 0 0 0 0 0
-16 -17 0 -29 0 0 0 0 0 0 0 -322 -334 -144 0 0 0 0 0 0 0 0 0 0 0 0 0 0 0 0 0 0 0 0 0 0 0 0 0 0 0 0 0 0 0 0 0 0 0
-14 -21 -20 0 0 0 0 0 0 0 -126 -276 -334 -232 0 0 0 0 0 0 0 0 0 0 0 0 0 0 0 0 0 0 0 0 0 0 0 -18 0 0 0 0 0 0 0 0 0 0 0
0 -6 0 0 0 0 0 0 0 0 0 -226 -356 0 0 0 0 0 0 0 0 0 0 0 0 0 0 0 0 0 0 0 0 0 0 0 0 0 0 0 0 0 0 0 0 0 0 0 0
-2 -35 0 -1 0 -21 0 0 0 0 0 -221 0 0 0 0 0 0 0 0 0 0 0 0 0 0 0 0 0 0 0 0 0 0 0 0 0 0 0 0 0 0 0 0 0 -23 0 0 0
0 0 -2 -2 0 0 0 0 0 0 0 -197 -225 0 0 0 0 0 0 0 0 0 0 0 0 0 0 0 0 0 0 0 0 0 0 0 0 0 0 0 0 0 0 0 0 0 0 0 0
0 -1 0 -2 -18 0 0 0 0 0 0 0 0 0 0 0 0 0 0 0 0 0 0 0 0 0 0 0 0 0 0 0 0 0 0 0 0 0 0 0 0 0 0 0 0 0 0 0 0
0 0 0 -7 -9 -8 0 0 0 0 0 0 0 0 0 0 0 0 0 0 0 0 0 0 0 0 0 0 0 0 0 0 0 0 0 0 0 0 0 0 0 0 0 0 0 0 0 0 0
0 0 -8 -14 0 -11 -14 -2 0 0 0 0 0 0 0 0 0 0 0 0 0 0 0 0 0 0 0 0 0 0 0 0 0 0 0 0 0 0 0 0 0 0 0 0 0 0 0 0 0
0 0 -1 -5 -12 -1 -2 0 0 0 0 0 0 0 0 0 0 0 0 0 0 0 0 0 0 0 0 0 0 0 0 0 0 0 0 0 0 0 0 0 0 0 0 0 0 0 0 0 0
0 0 -4 -6 -1 -4 0 -1 0 0 0 0 0 0 0 0 0 0 0 0 0 0 0 0 0 0 0 0 0 0 0 0 0 0 0 0 0 0 0 0 0 0 0 0 0 0 0 0 0
0 -2 -3 -4 -1 -9 -1 0 0 0 0 0 0 0 0 0 0 0 0 0 0 0 0 0 0 0 0 0 0 0 0 0 0 0 0 0 0 0 0 0 0 0 0 0 0 0 0 0 0
0 -48 0 0 0 -1 0 0 0 0 0 0 0 0 0 0 0 0 -188 0 0 0 0 0 0 0 0 0 0 0 0 0 0 0 0 0 0 0 0 0 0 0 0 0 0 0 0 0 0
0 0 0 -2 0 0 0 0 0 0 0 0 0 0 0 0 0 0 -27 0 0 0 0 0 0 0 0 0 0 0 0 0 0 0 0 0 0 0 0 0 0 0 0 0 0 0 0 0 0
-1 0 0 0 0 0 0 0 0 0 0 0 0 0 0 0 0 0 0 0 0 0 0 0 0 0 0 0 0 0 0 0 0 0 0 0 0 0 0 0 0 0 0 0 0 0 0 0 0
0 0 0 0 0 0 0 0 0 0 0 0 0 0 0 0 0 0 0 0 0 0 0 0 0 0 0 0 0 0 0 0 0 0 0 0 0 0 0 0 0 0 0 0 0 0 0 0 0
0 0 0 0 0 0 0 0 0 0 0 0 0 0 0 0 0 0 0 0 0 0 0 0 0 0 0 0 0 0 0 0 0 0 0 0 0 0 0 0 0 0 0 0 0 0 0 0 0
0 0 0 0 0 0 0 0 0 0 0 0 0 0 0 0 0 0 0 0 0 0 0 0 0 0 0 0 0 0 0 0 0 0 0 0 0 0 0 0 0 0 0 0 0 0 0 0 0
Wind_Speed
3 3 2 4 5 5 3 5 1 6 2 3 1 8 8 4 2 3 3 9 15 12 12 12 16 17 18 17 16 16 16 17 17 17 17 16 16 17 15 14 14 14 14 13 14 14 12 12 12
2 2 4 2 5 3 5 4 3 4 4 10 8 6 6 3 3 8 6 14 15 13 11 12 15 16 18 17 16 15 16 16 18 18 16 16 16 15 14 13 13 13 13 12 11 13 12 13 12
3 2 3 4 4 5 5 3 1 4 5 2 6 6 5 5 5 9 11 14 14 12 11 12 15 17 18 17 16 15 14 16 15 15 16 17 15 15 14 12 12 12 11 12 13 12 12 13 13
3 4 4 4 5 5 5 4 3 3 4 7 6 8 3 2 8 9 17 16 15 11 10 11 16 17 18 17 17 16 16 16 14 16 17 16 15 14 12 11 10 10 11 11 12 12 12 13 13
3 2 2 2 4 4 4 4 5 3 4 4 1 4 3 2 13 19 16 13 15 11 10 10 14 17 17 17 17 15 15 16 15 15 15 14 14 12 12 11 11 11 10 11 11 11 11 12 13
2 2 2 4 5 3 5 6 6 4 4 3 6 6 3 7 18 15 15 13 12 12 10 10 11 14 16 16 15 15 15 15 15 15 14 14 13 12 11 11 11 10 9 9 9 9 10 10 13
5 3 5 3 4 2 6 6 6 8 6 5 10 6 2 6 12 14 14 14 12 11 9 7 7 10 11 12 12 13 13 14 13 12 13 12 11 11 10 10 10 9 8 8 8 9 9 9 19
4 4 4 5 5 5 5 2 3 11 7 7 4 9 8 11 11 15 14 14 13 10 9 8 6 7 6 7 11 11 10 11 10 10 10 10 10 9 9 8 7 7 7 7 8 11 11 21 19
4 2 5 7 7 4 5 2 1 2 8 1 5 8 10 18 16 15 14 13 14 11 11 9 8 7 6 6 7 10 10 10 9 8 8 7 4 5 6 6 7 6 6 10 12 13 20 20 19
5 5 9 5 3 1 5 5 6 2 6 1 2 3 21 20 19 19 19 17 17 16 13 11 9 8 7 6 6 5 6 4 4 5 6 4 5 4 5 4 5 5 4 12 15 16 15 11 6
6 7 5 4 1 4 4 7 5 4 5 7 10 15 24 20 15 16 14 16 14 16 12 12 11 9 9 7 4 3 3 3 3 5 5 4 3 3 3 2 1 1 2 4 6 8 6 7 7
6 9 6 3 3 4 4 8 9 6 7 8 15 24 24 21 18 18 16 15 16 15 15 14 13 11 9 6 5 4 4 3 3 4 5 4 3 3 3 2 3 4 3 5 5 5 7 8 9
14 7 10 8 3 3 3 5 6 10 8 7 14 19 24 21 17 13 13 13 14 14 13 14 13 12 8 9 5 4 4 4 5 4 5 4 4 4 4 3 3 4 4 6 6 7 6 7 8
11 9 4 4 2 4 5 7 5 7 5 12 17 19 19 22 19 12 16 16 16 14 14 14 14 13 10 8 7 6 4 5 4 4 5 5 4 4 4 4 4 4 4 4 6 6 5 7 7
9 13 14 14 3 3 2 11 9 14 8 13 15 17 18 18 16 18 19 18 17 14 12 14 14 13 11 9 9 6 6 5 4 4 5 5 5 5 6 4 4 4 4 7 7 5 7 6 7
13 12 14 19 16 7 5 15 9 5 10 12 13 12 16 17 18 15 15 17 15 13 14 14 13 12 13 10 7 6 5 5 4 4 4 5 5 7 5 4 4 4 5 5 5 6 5 5 6
18 11 26 18 26 17 16 4 16 9 9 12 13 13 15 14 12 11 13 15 15 15 14 15 13 13 13 9 7 6 7 5 4 4 4 6 5 6 5 5 4 5 5 4 5 5 6 5 6
15 24 20 23 18 26 22 13 11 5 8 14 15 14 13 16 21 16 12 12 15 15 15 14 10 12 11 7 5 4 4 4 5 5 4 6 5 6 5 4 5 5 5 4 4 6 4 5 6
14 16 24 14 12 20 30 20 16 10 6 8 11 15 16 18 15 15 12 12 14 15 16 16 14 12 10 7 8 6 7 4 3 4 7 6 5 6 6 4 5 4 6 6 6 5 6 4 6
25 18 18 7 14 18 20 27 20 15 12 11 15 16 19 14 15 17 17 14 17 18 18 16 16 14 12 9 8 5 4 2 3 3 4 5 6 6 6 6 5 6 5 6 5 6 4 3 6
23 17 17 9 11 10 4 13 17 15 13 9 15 20 18 20 20 18 19 18 17 19 20 18 18 16 15 12 6 4 5 3 2 2 2 4 6 6 6 6 5 6 5 7 6 7 7 5 4
14 14 14 15 15 11 13 12 22 20 13 12 14 17 16 18 17 18 18 18 20 20 18 19 18 17 15 13 13 12 12 9 4 5 3 4 6 6 6 6 6 6 4 5 5 5 4 5 6
15 15 13 11 13 6 13 9 16 17 27 22 14 15 18 20 21 21 22 23 20 18 18 17 17 16 16 16 16 12 12 8 3 4 7 5 5 6 6 7 7 5 4 5 6 5 5 4 4
15 15 5 9 10 9 13 11 11 21 20 23 10 14 19 19 20 21 23 19 17 15 16 16 18 19 18 17 17 18 16 10 7 6 7 5 4 4 6 6 5 5 6 7 5 5 6 5 4
19 14 4 6 6 6 13 11 17 6 17 17 22 17 18 19 20 20 19 19 20 19 18 17 19 20 19 20 18 18 16 14 13 11 9 9 6 4 7 6 6 5 5 6 6 6 5 6 5
23 13 6 7 7 3 5 11 13 13 18 8 12 19 19 20 20 20 20 22 23 22 21 21 21 21 21 19 19 16 14 10 9 10 8 8 8 7 8 7 7 6 7 5 6 4 4 6 5
10 6 4 6 3 4 5 2 7 7 11 13 9 10 17 19 18 19 20 22 22 20 22 24 22 21 20 20 16 15 13 13 12 11 8 8 7 6 9 9 7 7 7 6 6 5 6 6 5
2 6 5 2 6 4 2 3 6 5 8 7 7 10 12 11 17 18 18 20 18 19 20 19 19 21 17 18 17 14 14 14 11 11 13 12 9 8 10 10 8 8 7 7 7 5 5 6 4
4 5 3 5 1 4 3 2 4 7 6 9 10 8 8 12 11 11 11 14 15 14 15 17 17 19 17 17 15 15 14 13 13 13 12 11 10 11 12 12 10 10 9 7 7 6 7 7 6
3 2 4 6 6 2 1 1 6 6 7 7 8 9 3 3 1 4 8 8 9 12 12 14 14 14 13 14 12 14 13 13 13 11 11 11 11 10 11 11 10 9 9 9 9 9 7 8 8
Wind_Direction
343 63 54 34 64 65 268 262 346 316 4 339 53 123 132 60 122 188 131 141 130 140 144 130 122 123 121 118 116 123 125 121 120 120 122 121 115 107 104 99 92 89 83 87 82 74 77 74 66
317 120 36 82 97 103 265 238 301 239 188 128 82 92 50 101 87 118 103 149 133 137 135 129 132 131 128 126 127 129 128 134 129 128 128 125 114 107 104 100 97 92 88 87 84 79 78 71 62
287 84 85 126 130 175 214 226 336 10 267 150 98 53 114 129 110 140 139 141 128 131 132 134 137 133 129 127 126 128 127 120 119 138 128 112 113 111 109 104 99 94 93 82 78 77 69 61 54
23 14 23 117 206 232 209 232 16 87 253 55 115 77 61 220 150 141 140 140 128 131 132 139 141 137 133 130 130 132 133 130 124 116 117 121 116 113 110 104 97 94 84 83 81 74 68 62 57
39 61 141 215 223 248 256 215 128 174 281 106 140 138 79 36 123 132 141 138 134 132 136 140 144 140 137 135 135 136 133 133 128 126 126 121 119 118 114 109 101 96 92 90 82 72 65 62 61
25 102 136 209 221 210 266 245 137 189 185 173 82 102 151 131 134 145 142 138 135 136 139 145 144 144 139 139 137 138 137 135 135 133 129 125 123 119 113 108 107 104 102 94 86 72 67 70 74
143 129 208 219 225 258 223 240 176 195 178 211 142 94 120 151 142 138 136 133 137 139 137 135 140 142 139 139 140 140 140 140 138 136 128 124 122 119 115 115 116 114 110 106 100 86 80 78 86
120 130 219 226 194 225 225 254 211 170 209 103 162 154 180 190 148 132 133 136 139 146 143 137 133 136 132 146 147 144 143 140 138 130 131 133 132 128 129 128 124 125 117 110 112 109 78 78 82
111 145 206 203 170 236 7 314 94 144 134 219 172 156 161 154 139 136 141 146 154 156 152 145 144 138 132 133 146 146 148 146 142 142 141 138 142 147 151 155 149 145 149 117 108 110 94 84 74
165 173 204 203 209 130 350 18 313 145 147 42 63 59 142 149 156 155 159 162 165 164 162 155 152 151 145 149 149 146 154 153 159 150 161 161 165 173 165 151 163 171 180 120 110 100 91 89 84
189 197 198 241 139 9 327 330 299 180 247 194 179 151 157 158 165 165 166 167 165 162 160 163 161 160 160 154 157 153 153 164 173 170 185 192 184 181 143 117 87 293 17 114 98 92 81 80 92
181 206 172 243 71 19 330 307 314 225 232 157 158 160 160 168 169 173 170 165 161 168 161 167 168 170 171 157 167 166 163 176 179 192 196 171 170 190 160 136 134 80 82 86 79 88 93 89 89
223 184 218 238 0 320 310 286 255 279 271 130 146 164 171 173 171 174 169 163 162 167 162 171 172 175 170 166 165 165 179 181 201 191 184 177 144 139 120 126 120 105 101 106 102 101 101 94 92
175 222 195 203 242 316 292 276 158 271 129 143 157 175 176 176 175 157 172 172 176 167 169 171 176 177 171 169 164 177 177 185 180 185 180 180 167 157 119 124 117 96 110 103 113 110 102 98 99
175 201 230 241 235 266 16 287 201 236 162 162 176 179 181 181 176 177 176 176 177 177 166 174 177 179 173 172 172 173 182 175 180 181 180 178 175 149 123 122 117 116 119 117 115 112 106 106 99
216 198 208 216 224 241 175 257 249 252 159 187 180 182 186 187 186 178 177 179 181 167 174 174 177 172 174 170 168 175 174 171 178 178 173 171 161 133 129 131 146 138 133 128 138 120 116 118 109
200 208 210 209 194 205 201 244 261 196 192 181 186 190 191 185 188 191 179 179 179 177 174 181 176 171 171 166 160 168 168 170 168 162 168 162 147 143 137 144 160 144 140 139 151 126 134 126 111
213 208 204 204 193 198 230 241 262 269 195 190 190 189 193 196 200 190 175 176 180 179 177 179 175 172 170 160 148 154 153 164 165 173 170 163 156 147 133 145 158 147 138 140 132 128 117 128 125
279 241 216 213 183 201 216 239 260 258 226 208 195 189 194 203 200 196 183 178 177 183 178 180 175 179 169 167 165 172 181 165 166 179 167 165 159 153 153 161 154 149 148 160 155 121 123 100 127
252 271 214 170 190 194 212 228 243 246 245 201 198 201 204 189 189 194 195 184 185 183 185 180 184 178 183 179 178 170 145 144 142 172 158 172 168 168 162 161 167 160 142 151 158 138 125 117 182
248 255 210 154 186 201 126 233 240 245 238 223 207 205 203 190 188 191 193 191 187 188 187 185 187 182 184 179 137 92 77 73 128 138 179 194 177 174 169 175 160 162 157 166 169 162 146 149 213
251 246 199 173 158 204 192 240 228 235 242 225 205 209 198 192 195 191 191 191 195 194 187 187 186 183 183 170 174 176 189 184 187 151 163 179 184 183 176 167 168 173 160 173 164 166 151 139 176
241 219 216 179 177 134 194 226 243 211 224 228 209 203 195 192 190 191 194 198 196 189 190 186 185 184 183 180 184 183 190 192 134 133 162 180 190 185 182 173 162 171 166 172 168 162 166 163 147
231 166 162 190 191 220 202 213 214 217 218 219 201 196 196 195 197 198 199 191 189 190 189 184 184 190 187 186 187 189 193 170 151 162 176 179 187 188 187 171 176 166 173 174 173 170 171 171 141
221 189 146 189 185 216 170 212 240 226 216 213 212 199 197 198 198 198 192 191 195 192 187 186 187 193 190 192 192 192 192 179 180 176 182 173 173 187 189 171 177 173 187 165 156 158 166 162 165
206 183 162 172 183 154 134 234 244 226 256 253 237 207 196 197 199 199 191 192 197 194 189 189 191 193 193 195 196 194 185 184 185 183 178 185 189 188 171 175 174 180 164 168 150 140 150 152 149
156 205 126 89 9 97 212 299 286 252 238 229 235 204 207 197 195 196 198 198 197 193 196 195 192 196 195 195 191 192 185 183 186 178 171 180 182 171 170 170 168 179 152 170 150 150 149 144 146
173 119 162 118 166 188 269 283 253 333 319 262 229 207 200 196 203 201 198 199 197 197 197 196 194 196 193 192 192 188 185 184 177 174 181 182 175 162 163 168 177 168 152 170 152 148 148 141 147
149 154 80 86 149 199 143 292 265 284 304 304 292 223 209 199 191 203 208 199 195 191 192 196 197 194 190 189 187 182 184 185 180 181 180 180 166 170 175 176 169 173 163 169 153 155 153 152 149
345 161 140 193 187 186 111 301 330 350 340 334 360 345 47 58 67 195 184 171 179 180 182 189 192 193 187 184 174 178 175 178 180 181 173 161 169 170 171 166 175 173 171 167 163 166 166 164 168